TEI weather

Tezu Airport
Tezu, Arunachal Pradesh, India

Public forecast

Using degrees Celsius for public forecast. Weather courtesy of forecast.io.

METAR (pilot weather report)

Closest report is Dibrugarh Airport, 65.4 nm (121.2 km) WSW. Retrieved 2018/08/14 09:00 UTC (15 minutes ago):

VEMN 140900Z 01005KT 6000 FEW020 SCT100 35/26 Q0997 NO SIG

TAF (pilot weather forecast)

Forecast is more than 12 hours old.

Closest forecast is Jorhat Airport, 127.2 nm (235.6 km) SW. Retrieved 2009/10/07 21:00 UTC (9 years ago):

TAF VEJT 072100Z 0800/0809 VRB02KT 2000 RA/HZ SCT015 SCT020 BKN100 BECMG 0804/0806 5000 HZ TEMPO 0800/0809 1500 TSRA SCT010 FEW025CB OVC090